Location: Melita
(38.4566°N, 122.6369°W)
Time: 22:31:24
(UTC+00:00)

NOSS 3-4 (A) - Pass Details

Date: 24 January 2020
Orbit: 901 x 1312 km, 63.4° (Epoch: 06 February)

Event Time Altitude Azimuth Distance (km) Brightness Sun altitude
Exits shadow 13:45:34 21° 237° (WSW) 1,910 4.6 -18.9°
Maximum altitude 13:49:28 55° 308° (NW) 1,100 3.4 -18.1°
Drops below altitude 10° 13:55:37 10° 26° (NNE) 2,713 6.0 -17.0°
Sets 13:58:21 0° 30° (NNE) 3,716 6.8 -16.4°
